| time (UTC) | temp F | wind direction | speed knots | gust knots | rain 1hr in | rain 24hr in | rain mn in | humidity % | barometer mb |
| 20260903195805 | 90 | 272 | 1.7 | 6.1 | 0.00 | 1.09 | 1.09 | 67 | 1011.7 |
| 20260903192805 | 90 | 253 | 2.6 | 6.1 | 0.00 | 1.09 | 1.09 | 67 | 1012.0 |
| 20260903191804 | 90 | 252 | 3.5 | 7.0 | 0.00 | 1.09 | 1.09 | 67 | 1012.1 |
| 20260903191304 | 90 | 247 | 4.3 | 7.8 | 0.00 | 1.09 | 1.09 | 65 | 1012.1 |
| 20260903190804 | 90 | 251 | 3.5 | 6.1 | 0.00 | 1.09 | 1.09 | 66 | 1012.1 |
| 20260903185804 | 90 | 274 | 2.6 | 6.1 | 0.00 | 1.09 | 1.09 | 66 | 1012.3 |
| 20260903184305 | 87 | 270 | 2.6 | 5.2 | 0.00 | 1.09 | 1.09 | 74 | 1012.3 |
| 20260903182805 | 87 | 236 | 4.3 | 10.4 | 0.00 | 1.09 | 1.09 | 73 | 1012.5 |
| 20260903182306 | 87 | 248 | 6.1 | 11.3 | 0.00 | 1.09 | 1.09 | 73 | 1012.5 |
| 20260903181804 | 87 | 226 | 4.3 | 10.4 | 0.00 | 1.09 | 1.09 | 73 | 1012.6 |
| 20260903180805 | 88 | 240 | 5.2 | 10.4 | 0.00 | 1.09 | 1.09 | 71 | 1012.8 |
| 20260903175805 | 88 | 243 | 2.6 | 7.8 | 0.00 | 1.09 | 1.09 | 71 | 1012.9 |
| 20260903174304 | 89 | 237 | 2.6 | 6.1 | 0.00 | 1.09 | 1.09 | 70 | 1013.2 |
| 20260903173805 | 88 | 249 | 2.6 | 7.8 | 0.00 | 1.09 | 1.09 | 70 | 1013.3 |
| 20260903173304 | 88 | 260 | 2.6 | 8.7 | 0.00 | 1.09 | 1.09 | 72 | 1013.5 |
| 20260903172805 | 87 | 266 | 3.5 | 8.7 | 0.00 | 1.09 | 1.09 | 73 | 1013.6 |
| 20260903171305 | 87 | 253 | 4.3 | 6.1 | 0.00 | 1.09 | 1.09 | 74 | 1013.8 |
| 20260903165306 | 85 | 252 | 4.3 | 7.0 | 0.00 | 1.09 | 1.09 | 74 | 1014.2 |
| 20260903164305 | 85 | 262 | 2.6 | 7.0 | 0.00 | 1.09 | 1.09 | 75 | 1014.1 |
| 20260903163805 | 84 | 254 | 1.7 | 6.1 | 0.00 | 1.09 | 1.09 | 76 | 1014.0 |
| 20260903162306 | 84 | 244 | 2.6 | 7.0 | 0.00 | 1.09 | 1.09 | 75 | 1014.2 |
| 20260903161805 | 84 | 255 | 3.5 | 7.8 | 0.00 | 1.09 | 1.09 | 75 | 1014.2 |
| 20260903160304 | 85 | 244 | 4.3 | 7.8 | 0.00 | 1.09 | 1.09 | 75 | 1014.2 |
| 20260903155805 | 85 | 247 | 4.3 | 8.7 | 0.00 | 1.09 | 1.09 | 74 | 1014.3 |
| 20260903155306 | 85 | 254 | 2.6 | 6.1 | 0.00 | 1.09 | 1.09 | 74 | 1014.3 |
| 20260903154804 | 85 | 266 | 2.6 | 6.1 | 0.00 | 1.09 | 1.09 | 75 | 1014.4 |
| 20260903154304 | 84 | 259 | 1.7 | 6.1 | 0.00 | 1.09 | 1.09 | 75 | 1014.3 |
| 20260903152306 | 83 | 245 | 4.3 | 10.4 | 0.00 | 1.09 | 1.09 | 76 | 1014.3 |
| 20260903151804 | 82 | 257 | 2.6 | 6.1 | 0.00 | 1.09 | 1.09 | 77 | 1014.4 |
| 20260903151305 | 82 | 236 | 4.3 | 7.8 | 0.00 | 1.09 | 1.09 | 77 | 1014.4 |
| 20260903145805 | 82 | 235 | 2.6 | 8.7 | 0.00 | 1.09 | 1.09 | 78 | 1014.4 |
| 20260903144305 | 80 | 248 | 3.5 | 8.7 | 0.00 | 1.09 | 1.09 | 79 | 1014.3 |
| 20260903142804 | 80 | 239 | 4.3 | 10.4 | 0.00 | 1.09 | 1.09 | 78 | 1014.0 |
| 20260903142306 | 80 | 249 | 5.2 | 11.3 | 0.00 | 1.09 | 1.09 | 78 | 1014.2 |
| 20260903140304 | 78 | 246 | 4.3 | 8.7 | 0.00 | 1.09 | 1.09 | 82 | 1014.2 |
| 20260903133804 | 76 | 223 | 1.7 | 5.2 | 0.00 | 1.09 | 1.09 | 87 | 1013.7 |
| 20260903133305 | 76 | 213 | 2.6 | 4.3 | 0.00 | 1.09 | 1.09 | 86 | 1013.6 |
| 20260903132306 | 76 | 219 | 2.6 | 8.7 | 0.00 | 1.09 | 1.09 | 87 | 1013.5 |
| 20260903131805 | 75 | 183 | 5.2 | 8.7 | 0.00 | 1.09 | 1.09 | 87 | 1013.4 |
| 20260903130804 | 75 | 238 | 5.2 | 10.4 | 0.00 | 1.09 | 1.09 | 87 | 1014.4 |
| 20260903130304 | 75 | 255 | 5.2 | 10.4 | 0.00 | 1.09 | 1.09 | 87 | 1014.7 |
| 20260903125805 | 75 | 233 | 7.0 | 13.0 | 0.00 | 1.09 | 1.09 | 87 | 1014.3 |
| 20260903125305 | 75 | 221 | 5.2 | 11.3 | 0.00 | 1.09 | 1.09 | 87 | 1014.3 |
| 20260903124805 | 75 | 231 | 6.1 | 12.2 | 0.00 | 1.09 | 1.09 | 87 | 1014.4 |
| 20260903124305 | 75 | 239 | 7.0 | 12.2 | 0.00 | 1.09 | 1.09 | 87 | 1014.6 |
| 20260903123805 | 75 | 232 | 7.8 | 12.2 | 0.00 | 1.09 | 1.09 | 88 | 1015.0 |
| 20260903121804 | 74 | 243 | 4.3 | 8.7 | 0.00 | 1.09 | 1.09 | 89 | 1015.1 |
| 20260903121305 | 74 | 243 | 4.3 | 10.4 | 0.00 | 1.09 | 1.09 | 88 | 1015.2 |
| 20260903120804 | 74 | 245 | 2.6 | 6.1 | 0.00 | 1.09 | 1.09 | 87 | 1015.1 |
| 20260903115804 | 74 | 245 | 2.6 | 7.0 | 0.00 | 1.09 | 1.09 | 86 | 1015.3 |
| 20260903115306 | 74 | 252 | 2.6 | 7.0 | 0.00 | 1.09 | 1.09 | 86 | 1015.3 |
| 20260903114805 | 75 | 255 | 4.3 | 8.7 | 0.00 | 1.09 | 1.09 | 86 | 1015.1 |
| 20260903114304 | 74 | 255 | 5.2 | 10.4 | 0.01 | 1.09 | 1.09 | 86 | 1015.1 |
| 20260903113305 | 74 | 248 | 5.2 | 10.4 | 0.01 | 1.09 | 1.09 | 88 | 1015.1 |
| 20260903112804 | 73 | 240 | 5.2 | 10.4 | 0.01 | 1.09 | 1.09 | 89 | 1014.9 |
| 20260903110804 | 73 | 228 | 3.5 | 7.8 | 0.05 | 1.09 | 1.09 | 90 | 1014.0 |
| 20260903110304 | 73 | 236 | 5.2 | 12.2 | 0.06 | 1.09 | 1.09 | 91 | 1014.3 |
| 20260903105805 | 72 | 236 | 7.8 | 12.2 | 0.07 | 1.09 | 1.09 | 91 | 1014.5 |
| 20260903105306 | 72 | 237 | 6.1 | 12.2 | 0.08 | 1.09 | 1.09 | 91 | 1014.6 |
| 20260903104806 | 72 | 233 | 6.1 | 10.4 | 0.09 | 1.09 | 1.09 | 92 | 1014.9 |
| 20260903104305 | 72 | 237 | 4.3 | 8.7 | 0.08 | 1.08 | 1.08 | 92 | 1015.0 |
| 20260903103804 | 72 | 242 | 2.6 | 7.8 | 0.08 | 1.08 | 1.08 | 92 | 1015.2 |
| 20260903102306 | 71 | 217 | 2.6 | 5.2 | 0.09 | 1.08 | 1.08 | 92 | 1015.1 |
| 20260903100305 | 72 | 257 | 2.6 | 8.7 | 0.05 | 1.03 | 1.03 | 92 | 1016.1 |
| 20260903095306 | 73 | 284 | 3.5 | 10.4 | 0.04 | 1.01 | 1.01 | 92 | 1016.8 |
| 20260903094804 | 74 | 280 | 3.5 | 10.4 | 0.03 | 1.00 | 1.00 | 93 | 1016.7 |
| 20260903092306 | 74 | 280 | 1.7 | 4.3 | 0.02 | 0.99 | 0.99 | 92 | 1015.5 |
| 20260903091805 | 74 | 273 | 1.7 | 6.1 | 0.01 | 0.98 | 0.98 | 93 | 1015.7 |
| 20260903091305 | 73 | 237 | 3.5 | 7.8 | 0.02 | 0.98 | 0.98 | 92 | 1015.7 |
| 20260903085306 | 74 | 227 | 1.7 | 5.2 | 0.01 | 0.97 | 0.97 | 93 | 1015.4 |
| 20260903083804 | 73 | 207 | 1.7 | 2.6 | 0.05 | 0.97 | 0.97 | 93 | 1015.0 |
| 20260903083304 | 73 | 209 | 0.0 | 4.3 | 0.07 | 0.97 | 0.97 | 93 | 1015.0 |
| 20260903082306 | 73 | 208 | 2.6 | 5.2 | 0.12 | 0.97 | 0.97 | 92 | 1014.7 |
| 20260903081805 | 73 | 207 | 1.7 | 2.6 | 0.17 | 0.97 | 0.97 | 92 | 1014.8 |
| 20260903081305 | 73 | 207 | 0.9 | 2.6 | 0.23 | 0.96 | 0.96 | 92 | 1014.9 |
| 20260903080304 | 73 | 189 | 0.0 | 2.6 | 0.51 | 0.96 | 0.96 | 92 | 1015.1 |
| 20260903074304 | 73 | 166 | 1.7 | 2.6 | 0.94 | 0.94 | 0.94 | 92 | 1015.5 |
| 20260903073304 | 73 | 295 | 0.0 | 2.6 | 0.90 | 0.90 | 0.90 | 92 | 1016.2 |
| 20260903071304 | 74 | 333 | 4.3 | 8.7 | 0.73 | 0.73 | 0.73 | 91 | 1017.3 |
| 20260903070804 | 74 | 293 | 2.6 | 6.1 | 0.65 | 0.65 | 0.65 | 91 | 1017.3 |
| 20260903064804 | 74 | 19 | 0.9 | 2.6 | 0.00 | 0.00 | 0.00 | 91 | 1016.2 |
| 20260903064304 | 74 | 19 | 0.0 | 0.9 | 0.00 | 0.00 | 0.00 | 91 | 1015.7 |
| 20260903063805 | 74 | 20 | 2.6 | 6.1 | 0.00 | 0.00 | 0.00 | 91 | 1015.9 |
| 20260903061804 | 75 | 0 | 8.7 | 12.2 | 0.00 | 0.00 | 0.00 | 91 | 1016.4 |
| 20260903060805 | 75 | 347 | 7.8 | 10.4 | 0.00 | 0.00 | 0.00 | 91 | 1016.2 |
| 20260903060304 | 75 | 349 | 3.5 | 5.2 | 0.00 | 0.00 | 0.00 | 91 | 1015.9 |
| 20260903055306 | 75 | 346 | 4.3 | 5.2 | 0.00 | 0.00 | 0.00 | 91 | 1015.9 |
| 20260903052804 | 75 | 123 | 0.0 | 0.0 | 0.00 | 0.00 | 0.00 | 91 | 1016.1 |
| 20260903052307 | 75 | 123 | 0.0 | 0.0 | 0.00 | 0.00 | 0.00 | 91 | 1016.3 |
| 20260903050804 | 75 | 123 | 0.0 | 0.0 | 0.00 | 0.00 | 0.00 | 91 | 1016.4 |
| 20260903045306 | 75 | 123 | 0.0 | 0.0 | 0.00 | 0.00 | 0.00 | 90 | 1016.6 |
| 20260903044804 | 75 | 123 | 0.0 | 0.0 | 0.00 | 0.00 | 0.00 | 90 | 1016.6 |
| 20260903044304 | 74 | 123 | 0.0 | 0.0 | 0.00 | 0.00 | 0.00 | 90 | 1016.8 |
| 20260903043804 | 75 | 123 | 0.0 | 0.0 | 0.00 | 0.00 | 0.00 | 90 | 1016.7 |
| 20260903043304 | 75 | 123 | 0.0 | 0.0 | 0.00 | 0.00 | 0.00 | 90 | 1016.7 |
| 20260903042804 | 75 | 123 | 0.0 | 0.0 | 0.00 | 0.00 | 0.00 | 90 | 1016.7 |
| 20260903042306 | 75 | 123 | 0.0 | 1.7 | 0.00 | 0.00 | 0.00 | 90 | 1016.8 |
| 20260903040836 | 75 | 115 | 0.9 | 1.7 | 0.00 | 0.00 | 0.00 | 90 | 1016.9 |
| 20260903035805 | 75 | 109 | 1.7 | 2.6 | 0.00 | 0.00 | 0.00 | 90 | 1016.8 |
| 20260903034304 | 75 | 131 | 1.7 | 4.3 | 0.00 | 0.00 | 0.00 | 90 | 1016.5 |
| 20260903033304 | 75 | 144 | 2.6 | 5.2 | 0.00 | 0.00 | 0.00 | 90 | 1016.4 |
| 20260903032804 | 74 | 143 | 1.7 | 5.2 | 0.00 | 0.00 | 0.00 | 90 | 1016.5 |
| 20260903030304 | 74 | 124 | 5.2 | 11.3 | 0.00 | 0.00 | 0.00 | 90 | 1016.7 |
| 20260903025306 | 74 | 109 | 4.3 | 10.4 | 0.00 | 0.00 | 0.00 | 90 | 1016.7 |
| 20260903023805 | 74 | 116 | 5.2 | 8.7 | 0.00 | 0.00 | 0.00 | 90 | 1016.6 |
| 20260903021804 | 74 | 118 | 5.2 | 10.4 | 0.00 | 0.01 | 0.00 | 89 | 1016.7 |
| 20260903014304 | 74 | 109 | 6.1 | 10.4 | 0.00 | 0.03 | 0.00 | 88 | 1017.2 |
| 20260903013805 | 74 | 105 | 6.1 | 10.4 | 0.00 | 0.05 | 0.00 | 88 | 1017.2 |
| 20260903013304 | 74 | 102 | 7.8 | 11.3 | 0.00 | 0.06 | 0.00 | 88 | 1017.3 |
| 20260903012306 | 75 | 91 | 4.3 | 10.4 | 0.00 | 0.16 | 0.00 | 87 | 1017.7 |
| 20260903011809 | 75 | 105 | 6.1 | 10.4 | 0.00 | 0.47 | 0.00 | 87 | 1017.6 |
| 20260903010804 | 75 | 104 | 5.2 | 7.8 | 0.00 | 1.13 | 0.00 | 87 | 1017.5 |
| 20260903010304 | 74 | 105 | 6.1 | 10.4 | 0.00 | 1.27 | 0.00 | 87 | 1017.5 |
| 20260903005805 | 75 | 102 | 5.2 | 8.7 | 0.00 | 1.42 | 0.00 | 87 | 1017.6 |
| 20260903005306 | 75 | 98 | 5.2 | 7.8 | 0.00 | 1.56 | 0.00 | 87 | 1017.6 |
| 20260903004304 | 75 | 98 | 5.2 | 10.4 | 0.00 | 1.67 | 0.00 | 87 | 1017.5 |
| 20260903003304 | 74 | 102 | 5.2 | 8.7 | 0.00 | 1.71 | 0.00 | 87 | 1017.2 |
| 20260903002306 | 74 | 102 | 4.3 | 10.4 | 0.00 | 1.72 | 0.00 | 87 | 1017.0 |
| 20260903001804 | 74 | 101 | 4.3 | 10.4 | 0.00 | 1.74 | 0.00 | 87 | 1017.0 |
| 20260903001304 | 74 | 104 | 7.8 | 10.4 | 0.00 | 1.74 | 0.00 | 86 | 1016.9 |
| 20260903000304 | 74 | 108 | 6.1 | 10.4 | 0.00 | 1.74 | 0.00 | 86 | 1016.9 |
| 20260902235306 | 74 | 101 | 7.8 | 10.4 | 0.00 | 1.74 | 0.00 | 86 | 1016.7 |
| 20260902234804 | 74 | 102 | 6.1 | 10.4 | 0.00 | 1.74 | 0.00 | 86 | 1016.6 |
| 20260902233804 | 74 | 90 | 7.8 | 11.3 | 0.00 | 1.74 | 0.00 | 86 | 1016.6 |
| 20260902233303 | 74 | 101 | 6.1 | 11.3 | 0.00 | 1.74 | 0.00 | 86 | 1016.6 |
| 20260902231303 | 74 | 89 | 6.1 | 11.3 | 0.00 | 1.74 | 0.00 | 85 | 1016.8 |
| 20260902230804 | 74 | 95 | 6.1 | 11.3 | 0.00 | 1.74 | 0.00 | 85 | 1016.7 |
| 20260902230304 | 74 | 88 | 7.0 | 11.3 | 0.00 | 1.74 | 0.00 | 85 | 1016.7 |
| 20260902224803 | 74 | 97 | 7.8 | 12.2 | 0.00 | 1.74 | 0.00 | 85 | 1017.1 |
| 20260902223803 | 74 | 99 | 7.0 | 11.3 | 0.00 | 1.74 | 0.00 | 85 | 1017.2 |
| 20260902222803 | 75 | 80 | 6.1 | 10.4 | 0.00 | 1.74 | 0.00 | 85 | 1017.5 |
| 20260902221804 | 75 | 74 | 4.3 | 12.2 | 0.00 | 1.74 | 0.00 | 85 | 1017.6 |
| 20260902221304 | 75 | 95 | 6.1 | 10.4 | 0.00 | 1.74 | 0.00 | 84 | 1017.6 |
| 20260902214808 | 75 | 99 | 5.2 | 8.7 | 0.00 | 1.74 | 0.00 | 84 | 1017.8 |
| 20260902214307 | 75 | 95 | 5.2 | 8.7 | 0.00 | 1.74 | 0.00 | 84 | 1017.7 |
| 20260902213807 | 75 | 97 | 5.2 | 10.4 | 0.00 | 1.74 | 0.00 | 84 | 1017.8 |
| 20260902213307 | 75 | 106 | 4.3 | 7.8 | 0.00 | 1.74 | 0.00 | 84 | 1017.8 |
| 20260902212813 | 75 | 82 | 4.3 | 10.4 | 0.00 | 1.74 | 0.00 | 84 | 1017.8 |
| 20260902211307 | 75 | 81 | 5.2 | 10.4 | 0.00 | 1.74 | 0.00 | 83 | 1017.4 |
| 20260902204808 | 75 | 87 | 4.3 | 8.7 | 0.00 | 1.74 | 0.00 | 83 | 1017.3 |
| 20260902204307 | 75 | 98 | 6.1 | 10.4 | 0.00 | 1.74 | 0.00 | 84 | 1017.2 |
| 20260902203808 | 75 | 100 | 6.1 | 8.7 | 0.00 | 1.74 | 0.00 | 83 | 1017.3 |
| 20260902203307 | 75 | 101 | 6.1 | 10.4 | 0.00 | 1.74 | 0.00 | 83 | 1017.3 |